RH
52 31 20 17 13 10 10 7 4 7 8 8 8 10 11 9 17 34 30 32 40 52 66 73 93 94 93 92 91 91 90 90 91 92 91 92 92 91 92 92 90 88 85 82 82 83 81 84 90
19 14 14 12 13 13 7 6 7 9 9 9 9 9 8 11 15 25 33 30 34 46 60 66 95 94 94 93 93 92 90 90 91 91 90 92 92 91 92 92 92 90 87 84 81 79 82 89 91
29 16 13 13 16 12 9 6 10 9 8 9 9 7 9 20 17 27 29 30 33 39 49 68 94 95 94 94 94 93 91 91 92 91 90 92 91 91 92 92 92 90 88 84 80 81 89 95 92
16 11 13 18 14 9 9 9 9 9 8 8 8 8 14 17 23 24 26 26 33 34 39 92 94 95 95 94 94 94 93 93 93 92 90 91 91 90 92 92 91 90 88 86 84 86 94 95 93
12 12 14 12 9 7 7 9 10 9 10 9 8 11 22 19 21 25 30 30 38 42 66 75 94 94 95 95 94 94 94 94 94 93 92 92 91 91 93 92 91 90 89 87 86 92 95 95 94
13 11 15 12 9 6 7 8 9 10 9 9 9 11 20 20 25 29 32 38 42 52 67 77 92 94 95 96 96 96 95 95 94 93 94 94 92 93 94 92 91 91 90 88 89 94 95 95 94
14 14 12 9 8 7 7 9 10 10 10 12 10 11 20 21 23 26 35 47 50 56 62 80 81 86 96 96 97 97 97 96 96 95 95 95 95 95 94 92 92 91 90 89 91 94 95 95 95
11 12 13 10 9 7 8 9 10 11 10 10 8 11 15 18 19 23 29 47 60 61 67 71 77 78 84 89 98 98 98 97 97 96 96 97 96 95 94 94 93 92 91 90 91 92 94 96 96
9 14 14 9 7 7 8 9 8 8 10 9 9 10 10 11 15 22 31 33 54 61 68 71 71 69 75 75 83 97 97 97 97 96 97 98 89 90 87 88 90 93 92 92 91 91 94 97 96
13 15 12 9 9 8 8 8 8 8 8 9 10 10 10 13 16 16 17 22 36 59 60 62 68 67 70 57 69 84 81 87 90 89 91 92 86 80 75 80 91 94 94 92 91 92 94 99 93
13 15 11 10 10 9 10 9 8 9 9 8 10 12 13 13 16 16 18 21 28 30 38 50 68 70 67 65 68 68 70 75 78 82 84 90 80 77 76 75 80 90 94 89 92 95 91 90 81
15 12 11 11 9 10 11 10 11 11 11 9 11 12 12 14 19 21 26 28 29 33 39 43 58 71 73 64 66 72 78 80 73 72 80 83 84 80 78 74 77 81 87 84 84 83 84 78 74
15 13 12 11 10 11 11 13 13 12 11 9 11 12 12 14 17 23 27 31 36 41 50 53 53 66 65 78 77 81 82 78 78 80 74 74 80 80 86 77 81 78 80 84 77 80 79 77 76
15 13 12 12 12 12 13 12 12 11 10 12 13 13 14 17 21 22 26 32 38 42 47 57 57 63 57 70 78 82 88 86 83 81 79 79 80 89 87 87 87 90 84 84 84 80 80 76 76
14 16 14 14 12 12 11 14 15 11 12 14 14 14 17 17 17 22 26 30 34 39 44 54 59 65 75 75 79 78 83 89 88 94 91 90 84 85 84 88 90 88 91 89 91 88 83 81 82
17 18 21 14 12 11 14 20 12 9 13 15 13 18 17 17 19 21 24 23 26 32 44 51 50 59 68 74 76 83 86 90 93 93 96 94 91 90 87 89 90 90 92 93 96 93 89 90 95
20 23 19 16 12 14 16 18 12 12 13 14 14 18 17 18 22 25 24 25 28 32 38 41 50 51 61 69 69 80 87 93 93 94 94 88 88 86 89 89 90 90 95 96 94 93 92 95 97
22 20 19 17 16 16 17 18 15 13 13 15 17 19 18 21 24 25 26 29 28 32 39 38 42 52 60 52 65 69 76 89 92 94 94 91 93 90 88 93 96 97 98 98 96 94 94 92 94
19 20 21 16 13 16 18 18 17 15 14 15 21 20 20 25 23 23 30 32 33 40 39 40 47 53 51 50 54 54 62 83 88 88 85 86 90 95 95 93 96 97 97 97 96 97 97 98 95
20 22 21 17 15 18 20 20 18 16 16 17 20 20 23 24 21 21 25 31 38 39 42 38 38 46 47 47 56 60 65 59 84 91 89 88 89 91 93 97 98 98 98 98 98 98 98 96 97
22 22 23 23 19 19 22 23 20 18 18 18 18 20 21 23 23 22 24 34 38 41 45 37 42 45 49 54 48 56 62 64 61 71 75 88 87 88 93 94 97 98 98 97 96 97 95 98 98
27 19 20 23 27 34 23 36 25 20 21 21 23 25 24 23 22 23 26 29 34 41 47 41 42 40 36 51 53 61 57 58 58 58 56 66 75 83 86 92 97 97 98 99 99 98 97 96 98
25 22 26 28 32 34 31 31 25 19 23 25 26 26 28 28 28 28 30 29 29 37 42 49 46 40 43 48 57 57 59 57 55 56 63 62 66 76 81 86 92 94 97 96 99 99 99 99 97
24 28 30 30 32 43 30 28 26 22 23 24 26 25 26 26 27 28 29 30 29 34 46 50 46 39 45 50 55 60 64 63 60 60 61 59 58 58 75 77 88 93 95 96 98 99 99 98 97
25 35 54 49 47 40 20 30 26 23 19 22 27 27 28 29 31 31 28 27 31 37 42 42 37 37 41 47 49 52 56 63 63 62 61 61 59 69 70 75 81 91 94 94 96 97 98 99 99
31 34 54 69 57 44 28 34 30 26 26 26 27 28 28 29 32 29 27 30 29 32 38 44 39 39 39 47 50 55 58 59 62 63 64 67 68 67 72 72 77 74 77 90 96 96 96 99 99
33 43 32 50 46 53 37 31 26 30 32 32 32 30 34 32 30 27 28 32 34 35 38 51 44 39 43 50 54 57 60 64 67 70 72 79 75 64 68 74 74 76 78 84 85 88 94 97 96
35 30 51 59 89 67 38 36 35 36 37 34 35 36 34 30 29 28 27 30 30 35 42 49 50 47 51 61 62 59 62 64 70 74 83 84 82 78 80 78 77 77 79 84 86 92 88 89 96
40 43 44 45 62 86 72 50 33 34 33 38 36 36 33 29 29 29 27 26 29 37 37 46 52 56 66 68 69 74 77 76 79 85 88 87 82 77 74 72 74 77 79 79 88 92 92 92 93
42 49 49 91 74 71 82 76 40 39 37 36 37 34 31 29 28 28 26 27 29 31 34 40 53 66 74 75 82 90 89 88 90 86 74 76 78 76 73 73 75 75 77 79 83 88 88 93 96
Wind_Speed
6 10 9 8 7 8 15 19 5 2 5 9 8 8 10 10 15 6 10 6 16 16 15 14 11 10 10 12 13 14 15 15 14 13 12 11 11 10 9 9 10 11 12 13 13 11 12 12 11
11 12 10 6 8 12 14 6 6 9 10 6 3 3 4 12 18 15 11 9 14 16 14 13 12 11 11 10 11 13 13 15 14 14 14 13 12 10 10 9 10 10 11 12 13 12 11 12 11
12 18 8 7 12 16 8 8 13 10 4 4 4 5 3 13 14 13 12 9 12 12 14 14 13 12 12 12 12 12 13 13 14 14 14 14 13 12 11 10 9 9 10 10 12 12 12 11 11
8 7 8 9 17 20 5 10 11 1 4 3 6 5 13 13 12 12 12 8 10 8 12 17 15 12 11 11 12 13 13 12 13 14 14 15 15 13 11 10 9 9 10 10 9 10 11 11 12
10 9 12 14 17 15 6 12 6 3 3 6 4 4 16 12 12 10 9 5 9 9 13 13 16 14 12 11 11 12 13 13 13 14 15 15 14 13 12 12 11 10 10 10 10 11 10 11 11
8 10 12 15 19 8 4 9 2 4 3 1 3 8 12 13 12 8 4 7 6 6 12 12 11 12 12 12 12 11 12 12 13 14 15 15 15 13 13 13 12 11 10 9 9 11 11 11 10
13 12 16 20 12 5 4 9 6 5 6 11 5 6 12 14 9 5 6 7 4 7 5 10 9 10 9 9 10 11 12 12 13 14 15 14 13 13 14 13 12 11 10 10 10 11 10 11 11
11 12 20 18 11 7 11 7 7 4 4 6 4 3 9 11 7 3 8 7 3 3 5 5 9 9 8 8 8 9 10 12 12 13 13 14 14 15 14 12 11 10 10 11 11 10 9 10 10
13 9 14 16 11 2 8 2 10 3 6 9 3 7 8 10 2 2 6 8 9 6 7 5 6 9 7 7 9 8 9 10 10 11 12 10 9 10 11 12 13 13 12 12 12 12 11 9 10
9 12 20 9 12 7 3 2 8 11 11 12 10 10 4 7 3 6 6 6 11 13 11 10 8 9 8 7 8 9 9 8 8 9 10 9 10 10 12 13 12 14 13 12 12 12 11 10 6
14 14 19 19 6 7 12 12 11 12 13 12 6 8 11 8 8 9 13 14 16 14 11 3 10 7 10 8 3 5 6 6 7 10 10 10 8 8 8 7 8 8 12 7 8 8 7 10 7
15 17 17 15 14 7 11 14 14 14 12 11 9 10 6 8 8 12 14 16 14 14 13 15 14 3 4 3 6 3 4 2 6 8 11 8 7 8 7 7 9 10 8 10 9 7 9 10 9
16 16 13 19 10 11 13 15 15 16 12 11 5 5 4 4 7 10 10 9 11 11 14 13 11 8 7 6 3 4 3 6 7 5 9 10 9 9 8 8 7 10 9 10 10 9 9 9 11
19 18 14 15 15 14 16 17 16 18 11 5 8 3 10 14 15 12 11 10 10 9 11 13 15 13 9 6 5 2 3 5 6 6 7 7 8 7 9 9 9 8 8 9 9 10 9 9 10
15 19 17 19 19 21 20 15 17 19 12 11 12 10 11 11 11 10 8 8 9 10 12 12 13 13 13 11 11 1 2 3 3 3 5 6 9 10 12 9 9 8 9 10 8 10 8 8 9
18 15 16 20 23 17 3 14 21 9 15 10 11 14 10 12 12 10 9 10 13 14 13 11 11 12 12 13 9 9 7 6 3 3 4 7 10 13 13 10 10 10 9 9 8 9 8 8 7
16 15 18 21 9 5 10 12 5 11 9 11 12 16 12 13 13 10 12 13 13 13 11 13 12 13 12 8 8 7 9 8 9 9 8 10 10 12 12 11 10 11 8 9 10 9 12 10 9
15 11 11 11 14 8 9 11 13 15 13 10 11 13 13 13 12 10 12 11 12 11 9 9 8 9 8 9 6 5 4 4 4 5 5 9 10 14 12 9 8 9 9 9 10 13 11 12 13
13 14 15 16 14 7 10 13 16 14 15 14 15 13 13 13 10 10 6 7 6 7 9 9 9 8 5 6 6 6 7 3 3 2 5 8 8 9 13 10 8 11 13 13 14 13 17 10 9
13 15 15 15 15 15 18 21 20 21 8 7 17 14 14 12 11 8 7 7 8 9 8 9 10 9 6 6 5 5 4 6 3 3 3 3 5 7 5 9 8 11 10 12 15 14 8 9 12
12 13 14 16 17 19 20 23 22 9 9 12 15 15 13 10 10 8 6 7 5 6 7 10 11 11 7 8 6 5 5 4 5 4 5 3 4 4 4 6 5 8 10 12 16 18 19 13 12
15 14 15 18 16 16 19 16 22 11 11 12 13 11 11 11 8 6 7 5 6 7 7 10 11 12 11 9 8 9 9 10 8 9 10 8 5 6 4 4 3 3 5 5 5 9 11 15 13
17 17 16 19 19 19 22 15 17 7 18 14 12 11 9 8 6 6 6 7 5 7 8 7 9 10 11 11 10 8 11 10 9 10 12 11 10 7 6 5 4 4 1 5 4 5 5 5 6
16 16 19 20 17 15 22 18 14 10 18 16 14 11 8 7 5 5 5 5 7 8 7 6 7 9 9 8 10 9 10 12 13 13 12 11 10 9 7 6 6 5 5 6 2 3 8 9 11
11 12 8 7 9 12 11 9 5 11 11 18 15 11 8 5 4 4 6 9 9 8 7 7 11 12 12 14 13 14 16 13 14 15 13 14 10 8 8 7 6 4 5 6 5 4 5 6 5
13 12 7 9 11 16 22 9 8 16 17 16 14 9 4 3 5 6 9 9 9 9 9 7 9 11 10 10 14 13 16 11 11 14 14 12 13 8 6 5 7 8 7 6 4 5 7 6 4
7 11 14 12 13 13 11 4 7 11 10 10 9 5 4 4 7 9 9 8 8 8 8 6 10 13 11 12 11 14 15 15 14 17 16 12 15 10 9 10 10 8 10 7 5 7 10 7 8
15 13 10 1 5 7 7 14 4 11 10 8 6 3 4 6 7 7 7 8 7 8 7 7 8 12 12 15 14 15 18 17 13 15 17 17 11 7 7 7 9 10 9 9 9 7 8 11 8
12 8 11 8 5 5 6 5 4 3 11 11 6 2 3 5 6 6 7 8 8 7 8 8 12 12 13 16 19 19 17 17 15 14 14 8 7 8 8 8 9 7 10 9 7 8 9 9 9
19 18 18 5 7 7 9 11 2 8 7 5 1 4 5 6 8 6 8 8 8 9 9 10 11 12 13 16 18 16 14 14 13 8 5 5 6 6 7 9 9 9 9 8 9 8 8 8 9
Wind_Direction
211 226 229 247 247 230 257 251 79 160 149 40 20 357 330 339 48 68 94 98 108 124 134 142 124 123 134 143 147 149 148 150 149 151 148 142 139 136 132 128 141 149 147 148 148 139 132 122 115
226 214 231 267 246 251 245 145 136 55 26 21 298 255 277 70 78 100 99 109 106 125 139 141 136 134 134 141 148 151 156 157 157 158 154 152 149 146 143 144 146 151 150 151 152 144 135 128 124
264 267 258 236 227 256 327 102 66 49 78 258 173 277 50 44 56 76 95 106 103 121 142 137 143 144 148 153 152 155 161 165 164 164 160 156 155 161 158 157 153 151 151 154 156 150 138 132 132
240 217 255 260 257 239 44 68 51 9 125 208 345 107 75 46 64 66 102 122 107 123 130 142 142 146 148 154 156 158 159 167 169 165 166 164 169 171 161 159 161 158 159 165 165 149 141 145 147
249 269 250 259 252 266 86 77 12 345 48 358 315 87 90 78 76 62 108 93 115 106 111 144 141 147 153 158 161 159 161 169 173 168 170 173 172 172 168 170 172 168 167 172 168 150 155 157 160
241 231 265 252 232 217 118 96 62 255 84 139 251 354 94 77 62 58 69 101 87 107 132 133 143 149 155 160 164 164 162 169 175 177 174 176 178 176 174 176 178 175 169 171 171 157 162 168 167
260 276 274 291 313 95 180 104 216 21 344 53 357 284 116 92 88 76 80 72 69 106 103 134 157 163 158 165 169 167 166 169 178 184 179 177 178 177 180 182 181 174 169 174 171 171 174 170 169
251 280 284 280 285 269 119 128 92 260 303 12 274 323 86 105 108 168 126 128 118 111 134 134 148 169 175 174 171 173 175 173 181 187 181 180 181 185 182 178 177 173 172 177 168 174 179 176 174
271 269 265 265 234 219 97 177 212 215 245 233 247 297 23 55 39 283 147 175 160 171 162 173 158 166 180 192 176 177 184 181 189 194 189 174 196 193 189 196 179 178 177 176 169 172 179 177 180
235 260 258 19 356 348 70 202 294 279 265 233 217 206 175 95 348 289 285 228 177 176 174 168 182 166 172 203 178 185 188 195 198 201 197 204 206 197 201 196 181 176 173 167 168 171 175 173 186
234 247 282 306 5 315 308 299 280 265 262 258 340 45 46 37 13 21 10 14 21 16 18 193 165 173 168 189 214 180 194 194 205 215 212 201 212 213 199 200 185 178 168 173 171 171 184 193 194
248 254 274 288 301 272 274 285 296 299 300 309 49 48 67 76 39 24 17 11 12 14 20 23 9 309 176 176 181 207 162 248 208 208 209 209 214 213 213 208 183 186 178 190 181 186 190 196 212
259 262 271 281 261 267 268 267 272 274 276 269 89 89 125 92 84 75 39 27 16 9 14 7 2 26 5 288 182 178 198 215 230 263 209 209 207 219 210 208 193 188 187 193 183 187 193 202 200
291 285 294 281 285 264 262 263 264 258 248 134 124 223 75 59 47 39 28 30 23 22 22 15 11 9 358 351 288 196 154 230 234 240 250 244 231 223 219 217 207 197 196 191 196 184 185 201 195
280 276 275 267 258 252 250 254 255 249 147 171 180 154 92 80 70 52 34 39 38 30 40 23 20 9 359 355 353 280 6 21 275 242 254 262 245 246 245 237 225 212 205 197 202 184 184 196 196
280 262 270 264 244 226 177 270 286 185 150 186 224 128 132 99 65 45 28 39 41 28 24 53 37 21 9 12 358 1 350 331 305 256 240 241 248 252 247 234 223 210 203 208 193 186 181 198 181
242 247 254 258 165 194 193 262 292 145 194 207 241 136 127 104 79 48 40 36 36 31 27 30 29 13 360 24 30 40 36 26 6 356 334 297 268 253 252 243 232 223 200 201 191 189 181 178 183
283 313 285 270 160 193 225 268 281 283 281 262 107 109 108 93 80 64 51 33 39 30 17 28 26 12 6 8 5 18 33 18 2 5 343 359 348 315 270 254 238 204 200 196 194 195 196 191 185
324 311 295 295 291 265 271 253 256 276 259 248 135 123 113 104 95 78 65 66 43 43 14 15 19 8 18 20 351 2 351 351 330 346 346 344 330 359 334 269 230 214 205 203 197 194 186 199 182
287 283 281 282 287 319 317 305 294 270 275 101 127 130 128 130 121 103 77 46 36 33 16 6 12 360 355 17 344 350 343 317 233 249 270 310 319 332 341 354 279 219 224 208 199 197 194 194 186
259 265 277 290 311 306 287 274 271 74 92 101 119 122 128 121 107 91 60 53 17 46 27 7 5 348 353 4 353 342 328 307 316 308 312 240 243 291 297 313 14 318 243 223 219 194 193 190 198
281 290 308 307 297 286 301 291 283 175 137 123 122 123 121 120 105 86 55 26 352 43 31 13 355 341 351 351 348 348 334 330 330 318 319 305 294 277 263 272 300 311 323 287 276 257 207 206 198
294 306 301 291 284 284 277 269 272 192 152 148 132 113 95 90 84 55 30 20 342 27 31 19 347 338 341 343 343 336 329 317 316 314 305 306 297 246 248 233 220 257 296 312 321 246 196 222 200
301 299 289 266 254 256 265 256 281 162 165 151 135 125 115 93 74 44 352 347 23 25 21 358 321 336 328 331 335 325 314 324 322 315 305 298 285 276 233 232 198 207 236 231 254 324 271 230 233
253 280 297 294 284 279 306 350 339 57 125 144 138 133 112 80 40 353 340 17 9 5 348 335 347 336 338 344 336 332 324 327 316 314 305 295 296 319 318 317 274 218 220 236 233 212 255 285 230
311 299 287 286 298 299 320 288 78 67 62 86 91 100 117 45 7 353 8 15 356 340 341 348 336 323 322 323 326 329 323 311 315 310 307 305 307 293 275 294 304 320 300 223 217 252 242 213 245
294 302 310 297 283 272 246 161 105 116 112 124 132 145 90 353 1 7 357 343 337 334 325 342 333 312 339 332 328 314 303 303 303 307 299 302 293 292 313 329 316 316 316 324 300 254 261 229 229
256 273 287 316 287 281 295 309 83 178 164 162 177 196 21 350 358 338 341 323 334 322 327 323 317 7 345 345 330 313 306 301 303 304 298 293 307 340 342 333 326 330 332 345 331 322 298 260 236
298 280 258 280 240 254 293 277 84 87 182 179 178 107 14 5 335 348 329 330 322 336 333 353 16 5 353 342 327 315 310 306 304 290 285 299 338 356 338 321 319 346 333 326 333 352 338 320 265
280 269 279 200 231 235 269 261 108 137 124 136 269 334 14 341 318 342 333 331 337 343 340 4 0 9 1 336 319 306 303 302 296 285 346 326 324 341 336 348 329 326 320 326 319 317 318 322 328